{"data":{"norad_id":62555,"intl_designator":"2025-006B","name":"STARLINK-11534 [DTC]","alt_names":[],"object_type":"PAYLOAD","status":"ACTIVE","operator":null,"country":"US","launch_date":"2025-01-10","launch_site_code":"AFETR","launch_vehicle":null,"mission":null,"orbit_class":"UNKNOWN","rcs_meters":null,"size_class":null,"mass_kg":null,"dimensions":null,"purposes":["comms"],"wikipedia_slug":null,"has_3d_model":false,"image_url":null,"decayed_at":null,"tle_current":{"epoch":"2026-09-21T16:53:58.229952Z","epoch_age_seconds":67314,"freshness":"FRESH","line1":"1 62555U 25006B   26264.70414618  .00147609  00000+0  11306-2 0  9996","line2":"2 62555  43.0032  38.0991 0002877 288.0333  72.0221 15.70899026 97432","mean_motion":15.70899026,"eccentricity":0.0002877,"inclination_deg":43.0032,"raan_deg":38.0991,"arg_perigee_deg":288.0333,"mean_anomaly_deg":72.0221,"bstar":0.0011306,"rev_number":9743,"period_min":91.66725398428,"perigee_km":354.38885438776,"apogee_km":358.26386460481,"semimajor_km":6734.4633594963,"source":"CELESTRAK","updated_at":"2026-09-22T09:00:49.626082Z"}}}